星链-4053 (STARLINK-4053 )

导读

STARLINK-4053是美国SpaceX公司星链(Starlink)项目的低轨通信卫星,于2022年8月19日发射入轨。星链计划旨在构建全球卫星互联网星座,为偏远地区提供高速低延迟网络服务。该卫星属于星链大规模部署的一部分,运行在近地轨道,配备霍尔推进器用于轨道调整与末期离轨,服役寿命约5-7年,退役后会坠入大气层焚毁。它的加入进一步拓展了星链星座的全球覆盖能力,同时也引发了关于太空拥堵和天文观测影响的讨论。

基本信息
目录编号:
53536
目录名称:
STARLINK-4053
国际标识:
2022-101K
轨道中心:
EARTH
卫星名称:
星链-4053
卫星全名:
星链-4053 (STARLINK-4053 )
卫星状态:
在轨 (已飞行1477 天)
发射日期:
2022-08-19 UTC
国别 :
美国 (US)
星等 :
--
轨道信息
数据来源 国际轨道数据
星历时间: 2026-09-04T02:26:38+0800
17小时前
查看轨道信息
半长轴: 6848.885km
偏心率: 0.0001199
轨道倾角: 53.162°
近地点辐角 102.351°
升交点赤经 333.674°
平近点角 257.763°
近地点: 469.926km
远地点: 471.57km
周期: 94.013分钟
每日圈数: 15.316974
详细信息
固有亮度:
5
最大亮度:
2.5
卫星平台:
Starlink v1.5
覆盖范围:
全球
运营商:
太空探索技术公司
运营商所在国:
美国
制造商(研发单位):
太空探索技术公司
制造商所在国:
美国
使用方式:
暂无
卫星简介
星链(Starlink)计划是由太空探索技术公司(SpaceX)提出的一个巨型低轨卫星互联网星座项目,计划在2019年至2024年间在太空搭建由约1.2万颗卫星组成的“星链”网络,其中1584颗将部署在地球上空550千米处的近地轨道,并从2020年开始工作。该卫星仍在工作。
2D轨道图
3D轨道图
轨道高度分析图
轨道倾角分析图
轨道综合分析图
查看轨道综合分析图
交会数据列表
事件ID 空间交会对象 最接近时刻(TCA) 交会距离 交会风险概率(CRP) 交会风险指数(CRI) 操作
CDM_260906-113004-793705-353621
OBJECT F (47937)
2026-09-06T
11:30:36+0000
1.413 km
极远距离
8.156752E-6 低风险 0.53
CDM_260904-135505-353605-941321
2026-09-04T
13:55:26+0000
2.116 km
极远距离
2.059577E-6 低风险 0.41
CDM_260905-235905-353605-937121
2026-09-05T
23:59:56+0000
2.814 km
极远距离
1.378575E-6 低风险 0.38
CDM_260904-195605-353606-976021
2026-09-04T
19:56:29+0000
2.996 km
极远距离
1.246738E-6 低风险 0.37
CDM_260903-042805-353605-700424
OBJECT A (57004)
2026-09-03T
04:28:16+0000
2.368 km
极远距离
1.168588E-6 低风险 0.36
CDM_260904-151805-353606-931821
2026-09-04T
15:18:38+0000
2.939 km
极远距离
1.012676E-6 低风险 0.35